WetterOnline ( https://www.wetteronline.ch )

Wetter aktuell Regen

Aktuelles Wetter: Zwiesel (613m)

6-stündlich | Neueste Meldungen
Ortszeit Temperatur Wetter
Do, 21.11. 1:00 2.8° C bedeckt
Mi, 20.11. 19:00 2.6° C bewölkt
Mi, 20.11. 13:00 5.5° C fast wolkenlos
Mi, 20.11. 7:00 -0.0° C Nebel
Mi, 20.11. 1:00 0.6° C bedeckt
Di, 19.11. 19:00 1.8° C bewölkt
Di, 19.11. 13:00 5.8° C leicht bewölkt
Di, 19.11. 7:00 -2.4° C leicht bewölkt
Ortszeit Temperatur Wetter
Do, 21.11. 4:30 3.0° C bedeckt
Do, 21.11. 4:20 3.0° C bedeckt
Do, 21.11. 4:10 3.0° C bedeckt
Do, 21.11. 4:00 2.9° C Sprühregen
Do, 21.11. 3:50 2.9° C Sprühregen
Do, 21.11. 3:40 3.0° C Sprühregen
Do, 21.11. 3:30 3.0° C Sprühregen
Do, 21.11. 3:00 3.0° C bedeckt
Do, 21.11. 2:30 2.9° C bedeckt
Do, 21.11. 2:00 2.8° C bedeckt
Do, 21.11. 1:30 2.8° C bedeckt
Do, 21.11. 1:00 2.8° C bedeckt
Ortszeit Relative Feuchte Sichtweite
Do, 21.11. 1:00 97% 2.8 km
Mi, 20.11. 19:00 92% 8 km
Mi, 20.11. 13:00 74% 19 km
Mi, 20.11. 7:00 98% 0.2 km
Mi, 20.11. 1:00 97% 6 km
Di, 19.11. 19:00 95% 5.0 km
Di, 19.11. 13:00 68% 27 km
Di, 19.11. 7:00 96% 5.0 km
Ortszeit Relative Feuchte Sichtweite
Do, 21.11. 4:30 97% 2.5 km
Do, 21.11. 4:20 97% -
Do, 21.11. 4:10 97% -
Do, 21.11. 4:00 97% 2.7 km
Do, 21.11. 3:50 97% -
Do, 21.11. 3:40 97% -
Do, 21.11. 3:30 96% 2.6 km
Do, 21.11. 3:00 96% 5.0 km
Do, 21.11. 2:30 97% 4.3 km
Do, 21.11. 2:00 97% 3.0 km
Do, 21.11. 1:30 97% 2.8 km
Do, 21.11. 1:00 97% 2.8 km
Ortszeit Niederschlagsmenge Niederschlagsart
Do, 21.11. 1:00 0.4 l/m2 in 6 Std. Regen
Mi, 20.11. 19:00 0.1 l/m2 in 12 Std. Regen
Mi, 20.11. 13:00 0.0 l/m2 in 6 Std. -
Mi, 20.11. 7:00 0.0 l/m2 in 12 Std. -
Mi, 20.11. 1:00 0.0 l/m2 in 6 Std. -
Di, 19.11. 19:00 0.0 l/m2 in 12 Std. -
Di, 19.11. 13:00 0.0 l/m2 in 6 Std. -
Di, 19.11. 7:00 0.0 l/m2 in 12 Std. -
Ortszeit Niederschlagsmenge Niederschlagsart
Do, 21.11. 4:30 0.1 l/m2 in 1 Std. Schnee
Do, 21.11. 4:20 keine Meldung -
Do, 21.11. 4:10 keine Meldung -
Do, 21.11. 4:00 0.1 l/m2 in 1 Std. Sprühregen
Do, 21.11. 3:50 keine Meldung -
Do, 21.11. 3:40 keine Meldung -
Do, 21.11. 3:30 0.1 l/m2 in 1 Std. -
Do, 21.11. 3:00 0.0 l/m2 in 1 Std. -
Do, 21.11. 2:30 0.0 l/m2 in 1 Std. -
Do, 21.11. 2:00 0.1 l/m2 in 1 Std. Sprühregen
Do, 21.11. 1:30 0.0 l/m2 in 1 Std. -
Do, 21.11. 1:00 0.0 l/m2 in 1 Std. Regen
Ortszeit Stärke Spitze Richtung
km/h Bft. km/h Grad Sektor
Do, 21.11. 1:00 0 0 7 - -
Mi, 20.11. 19:00 4 1 11 170° S
Mi, 20.11. 13:00 7 2 11 220° SW
Mi, 20.11. 7:00 4 1 7 350° N
Mi, 20.11. 1:00 4 1 7 140° SO
Di, 19.11. 19:00 2 1 6 90° O
Di, 19.11. 13:00 4 1 14 170° S
Di, 19.11. 7:00 2 1 7 80° O
Ortszeit Stärke Spitze Richtung
km/h Bft. km/h Grad Sektor
Do, 21.11. 4:30 0 0 4 - -
Do, 21.11. 4:20 2 1 - 140° SO
Do, 21.11. 4:10 0 0 - 100° O
Do, 21.11. 4:00 0 0 4 - -
Do, 21.11. 3:50 0 0 - 40° NO
Do, 21.11. 3:40 0 0 - 50° NO
Do, 21.11. 3:30 0 0 4 - -
Do, 21.11. 3:00 2 1 6 110° O
Do, 21.11. 2:30 0 0 4 - -
Do, 21.11. 2:00 2 1 4 70° O
Do, 21.11. 1:30 2 1 4 90° O
Do, 21.11. 1:00 0 0 4 - -
Ortszeit Untergrenze Bedeckung Gattung
total tief tief mittel hoch
Do, 21.11. 1:00 30 m 8/8 8/8 - - -
Mi, 20.11. 19:00 690 m 7/8 7/8 - - -
Mi, 20.11. 13:00 9000 m 1/8 0/8 - - -
Mi, 20.11. 7:00 <30 m 8/8 0/8 - - -
Mi, 20.11. 1:00 60 m 8/8 8/8 - - -
Di, 19.11. 19:00 6000 m 8/8 6/8 - - -
Di, 19.11. 13:00 4500 m 4/8 4/8 - - -
Di, 19.11. 7:00 3900 m 5/8 2/8 - - -
Ortszeit Bedeckungsgrad in Achtel und Wolkenuntergrenze
Do, 21.11. 4:30 7(60m) 8(510m)
Do, 21.11. 4:20 7(60m) 8(510m)
Do, 21.11. 4:10 7(30m) 7(480m) 8(630m)
Do, 21.11. 4:00 3(<30m) 7(450m) 8(630m)
Do, 21.11. 3:50 3(<30m) 7(450m) 8(630m)
Do, 21.11. 3:40 2(<30m) 7(450m) 8(600m)
Do, 21.11. 3:30 7(510m) 8(480m)
Do, 21.11. 3:00 8(570m)
Do, 21.11. 2:30 3(60m) 8(660m)
Do, 21.11. 2:00 7(60m) 7(780m) 8(960m)
Do, 21.11. 1:30 6(30m) 7(750m) 8(960m)
Do, 21.11. 1:00 3(30m) 6(780m) 8(1020m)
Ortszeit Luftdruck NN (hPa) Tendenz (hPa in 3 Std.)
Do, 21.11. 1:00 1013 - 1,0
Mi, 20.11. 19:00 1015 - 0,3
Mi, 20.11. 13:00 1015 - 1,7
Mi, 20.11. 7:00 1019 - 0,4
Mi, 20.11. 1:00 1019 - 0,3
Di, 19.11. 19:00 1018 + 0,8
Di, 19.11. 13:00 1016 - 1,1
Di, 19.11. 7:00 1020 - 0,3
Ortszeit Luftdruck NN (hPa) Tendenz (hPa in 3 Std.)
Do, 21.11. 4:30 1012 - 1,1
Do, 21.11. 4:20 1012 keine Meldung
Do, 21.11. 4:10 1012 keine Meldung
Do, 21.11. 4:00 1012 - 1,3
Do, 21.11. 3:50 1012 keine Meldung
Do, 21.11. 3:40 1012 keine Meldung
Do, 21.11. 3:30 1012 - 1,1
Do, 21.11. 3:00 1012 - 1,0
Do, 21.11. 2:30 1012 - 1,1
Do, 21.11. 2:00 1013 - 1,0
Do, 21.11. 1:30 1013 - 0,9
Do, 21.11. 1:00 1013 - 1,0
Ortszeit Schneehöhe (cm)
Do, 21.11. 1:00 0
Mi, 20.11. 19:00 0
Mi, 20.11. 13:00 0
Mi, 20.11. 7:00 0
Mi, 20.11. 1:00 0
Di, 19.11. 19:00 0
Di, 19.11. 13:00 0
Di, 19.11. 7:00 0
Ortszeit Schneehöhe (cm)
Do, 21.11. 4:30 0
Do, 21.11. 4:20 0
Do, 21.11. 4:10 0
Do, 21.11. 4:00 0
Do, 21.11. 3:50 0
Do, 21.11. 3:40 0
Do, 21.11. 3:30 0
Do, 21.11. 3:00 0
Do, 21.11. 2:30 0
Do, 21.11. 2:00 0
Do, 21.11. 1:30 0
Do, 21.11. 1:00 0
Link zu dieser Seite / Seite empfehlen

Das Wetter in ...